Regional Weather Roundup
Issued by NWS

Home | Current Version | Previous Version | Graphics & Text | Print | Product List | Glossary Off
Versions: 1 2 3 4 5 6 7 8 9 10 11 12 13 14 15 16 17 18 19 20 21 22 23 24 25 26 27 28 29 30 31 32 33 34 35 36 37 38 39 40 41 42 43 44 45 46 47 48 49 50

000
ASUS43 KTOP 071608
RWRKS

WEATHER ROUNDUP FOR KANSAS
NATIONAL WEATHER SERVICE GOODLAND KS
1100 AM CDT TUE JUL 07 2015

NOTE:  "FAIR" INDICATES FEW OR NO CLOUDS BELOW 12,000 FEET WITH NO
SIGNIFICANT WEATHER AND/OR OBSTRUCTIONS TO VISIBILITY.

KSZ001>006-013>018-027>032-041>047-071700-
NORTHWEST KANSAS

CITY           SKY/WX    TMP DP  RH WIND       PRES   REMARKS
GOODLAND       SUNNY     68  46  45 SE10      30.23F
HAYS           SUNNY     70  46  43 E17G24    30.17F
HILL CITY      SUNNY     71  49  45 E14       30.19F HAZE
RUSSELL        LGT RAIN  70  50  49 NE20      30.15S
$$

KSZ061>065-074>080-084>089-071700-
SOUTHWEST KANSAS

CITY           SKY/WX    TMP DP  RH WIND       PRES   REMARKS
DODGE CITY     PTSUNNY   65  54  67 NE14      30.17S HAZE
ELKHART          N/A     68  52  56 NE13        N/A
GARDEN CITY    MOSUNNY   67  50  54 NE16G25   30.18S HAZE
GREAT BEND     MOSUNNY   68  48  49 NE16G25   30.16F
LIBERAL        MOSUNNY   66  55  68 NE15      30.18F
PRATT          CLOUDY    64  54  68 NE15      30.14S HAZE
$$

KSZ066>073-081>083-090>101-071700-
SOUTHEAST KANSAS

CITY           SKY/WX    TMP DP  RH WIND       PRES   REMARKS
CHANUTE        LGT RAIN  63  61  93 NE12      30.04S FOG
COFFEYVILLE    CLOUDY    65  63  93 N10       30.02S FOG
HUTCHINSON     LGT RAIN  63  56  78 N10       30.11R
MEDICINE LODGE   N/A     65  63  93 NE14      30.10R
NEWTON         CLOUDY    63  54  72 NE15G21   30.11S
PARSONS        CLOUDY    64  62  93 N9        30.05S FOG
WICHITA INTL   CLOUDY    67  61  81 N17       30.08R HAZE
WICHITA JABRA  CLOUDY    65  63  93 NE16      30.08R FOG
WICHITA MCCONL CLOUDY    65  63  91 NE10      30.08S FOG
WINFIELD       CLOUDY    65  62  90 NE17G24   30.06S FOG
$$

KSZ007>012-019>026-033>040-048>060-102>105-071700-
NORTHEAST KANSAS

CITY           SKY/WX    TMP DP  RH WIND       PRES   REMARKS
CONCORDIA      SUNNY     68  52  56 NE17G23   30.15S
EMPORIA        CLOUDY    65  58  78 N13       30.08S
LAWRENCE       PTSUNNY   67  58  72 N8        30.08S
MANHATTAN      MOSUNNY   70  50  49 NE17G26   30.12R
MARYSVILLE     SUNNY     66  50  55 NE17      30.13F
OLATHE IND     PTSUNNY   66  61  84 N13       30.08R HAZE
OLATHE EXE     CLOUDY    65  59  81 N14       30.06S HAZE
SALINA         MOSUNNY   71  48  43 NE18      30.13S
TOPEKA BILLARD PTSUNNY   67  56  67 N14       30.09S
TOPEKA FORBES  PTSUNNY   67  56  67 N13       30.08S
$$



USA.gov is the U.S. government's official web portal to all federal, state and local government web resources and services.